GNDRAP-WX Weather Reports


time (UTC)temp
C
wind
direction
speed
KPH
gust
KPH
rain 1hr
cm
rain 24hr
cm
rain mn
cm
humidity
%
barometer
mb
20260509074555 7 193 11.3 0.0 0.00 0.00 0.00 57 978.8
20260509073115 7 192 11.3 0.0 0.00 0.00 0.00 57 978.8
20260509071556 7 187 11.3 0.0 0.00 0.00 0.00 57 978.8
20260509070126 7 177 11.3 0.0 0.00 0.00 0.00 57 978.8
20260509064555 7 178 11.3 0.0 0.00 0.00 0.00 44 979.3
20260509063112 7 174 14.5 0.0 0.00 0.00 0.00 46 978.9
20260509061555 8 175 12.9 0.0 0.00 0.00 0.00 46 978.8
20260509060139 8 171 11.3 0.0 0.00 0.00 0.00 46 978.8
20260509054555 8 172 9.7 0.0 0.00 0.00 0.00 41 980.4
20260509053110 8 168 9.7 0.0 0.00 0.00 0.00 42 979.7
20260509051553 8 163 9.7 0.0 0.00 0.00 0.00 42 979.7
20260509050127 8 172 9.7 0.0 0.00 0.00 0.00 42 979.7
20260509044554 8 166 9.7 0.0 0.00 0.00 0.00 38 980.8
20260509043110 8 171 9.7 0.0 0.00 0.00 0.00 39 979.5
20260509041554 9 176 9.7 0.0 0.00 0.00 0.00 39 979.5
20260509040131 9 173 11.3 0.0 0.00 0.00 0.00 39 979.5
20260509034554 9 171 11.3 0.0 0.00 0.00 0.00 36 980.2
20260509033109 10 174 9.7 0.0 0.00 0.00 0.00 34 980.8
20260509031554 10 172 9.7 0.0 0.00 0.00 0.00 34 980.8
20260509030126 10 165 9.7 0.0 0.00 0.00 0.00 34 980.8
20260509024553 10 162 8.0 0.0 0.00 0.00 0.00 29 981.4
20260509023111 10 173 8.0 0.0 0.00 0.00 0.00 30 981.2
20260509021554 10 182 9.7 0.0 0.00 0.00 0.00 30 981.2
20260509020123 11 187 8.0 0.0 0.00 0.00 0.00 30 981.2
20260509014552 11 192 8.0 0.0 0.00 0.00 0.00 31 981.2
20260509013107 11 204 6.4 0.0 0.00 0.00 0.00 31 981.2
20260509011552 12 208 4.8 0.0 0.00 0.00 0.00 31 981.2
20260509010120 12 220 4.8 0.0 0.00 0.00 0.00 31 981.2
20260509004552 12 229 6.4 0.0 0.00 0.00 0.00 25 981.1
20260509003111 13 231 6.4 0.0 0.00 0.00 0.00 25 982.3
20260509001552 13 245 6.4 0.0 0.00 0.00 0.00 25 982.3
20260509000133 15 254 8.0 0.0 0.00 0.00 0.00 25 982.3
20260508234553 15 256 11.3 0.0 0.00 0.00 0.00 22 981.6
20260508233113 15 262 11.3 0.0 0.00 0.00 0.00 22 982.0
20260508231555 15 256 12.9 0.0 0.00 0.00 0.00 22 982.0
20260508230119 15 263 12.9 0.0 0.00 0.00 0.00 22 982.0
20260508224554 16 265 14.5 0.0 0.00 0.00 0.00 22 982.1
20260508223113 15 262 14.5 0.0 0.00 0.00 0.00 21 983.0
20260508221556 16 265 16.1 0.0 0.00 0.00 0.00 21 983.0
20260508220121 16 264 16.1 0.0 0.00 0.00 0.00 21 983.0
20260508214555 16 263 17.7 0.0 0.00 0.00 0.00 21 983.5
20260508213112 16 261 17.7 0.0 0.00 0.00 0.00 22 983.0
20260508211555 16 255 16.1 0.0 0.00 0.00 0.00 22 983.0
20260508210125 16 254 16.1 0.0 0.00 0.00 0.00 22 983.0
20260508204556 16 254 16.1 0.0 0.00 0.00 0.00 22 983.1
20260508203114 16 247 16.1 0.0 0.00 0.00 0.00 20 982.8
20260508201555 16 245 14.5 0.0 0.00 0.00 0.00 20 982.9
20260508200121 16 245 14.5 0.0 0.00 0.00 0.00 20 982.9
20260508194556 17 243 16.1 0.0 0.00 0.00 0.00 19 983.1
20260508193110 17 244 14.5 0.0 0.00 0.00 0.00 19 983.1
20260508191554 17 259 14.5 0.0 0.00 0.00 0.00 19 983.2
20260508190118 17 259 14.5 0.0 0.00 0.00 0.00 19 983.2
20260508184555 16 259 14.5 0.0 0.00 0.00 0.00 21 983.5
20260508183114 16 250 14.5 0.0 0.00 0.00 0.00 21 983.1
20260508181555 16 251 16.1 0.0 0.00 0.00 0.00 21 983.1
20260508180125 16 249 16.1 0.0 0.00 0.00 0.00 21 983.1
20260508174555 16 243 16.1 0.0 0.00 0.00 0.00 29 984.2
20260508173114 16 249 16.1 0.0 0.00 0.00 0.00 29 984.2
20260508171555 15 245 14.5 0.0 0.00 0.00 0.00 29 984.2
20260508170120 15 248 14.5 0.0 0.00 0.00 0.00 29 984.2
20260508164555 15 248 14.5 0.0 0.00 0.00 0.00 37 984.6
20260508163113 15 237 14.5 0.0 0.00 0.00 0.00 37 984.7
20260508161555 13 229 12.9 0.0 0.00 0.00 0.00 37 984.7
20260508160126 13 225 12.9 0.0 0.00 0.00 0.00 37 984.7
20260508154556 13 219 12.9 0.0 0.00 0.00 0.00 45 985.7
20260508153115 12 210 12.9 0.0 0.00 0.00 0.00 46 984.4
20260508151555 12 199 12.9 0.0 0.00 0.00 0.00 46 984.4
20260508150125 11 199 11.3 0.0 0.00 0.00 0.00 46 984.4
20260508144556 11 195 9.7 0.0 0.00 0.00 0.00 62 984.8
20260508143113 10 195 9.7 0.0 0.00 0.00 0.00 60 984.9
20260508141556 10 192 8.0 0.0 0.00 0.00 0.00 60 984.9
20260508140134 9 190 8.0 0.0 0.00 0.00 0.00 63 984.7
20260508134555 8 189 8.0 0.0 0.00 0.00 0.00 70 984.6
20260508133110 8 193 8.0 0.0 0.00 0.00 0.00 70 984.5
20260508131555 7 192 8.0 0.0 0.00 0.00 0.00 70 984.5
20260508130129 6 187 8.0 0.0 0.00 0.00 0.00 70 984.5
20260508124555 5 180 8.0 0.0 0.00 0.00 0.00 81 984.1
20260508123114 5 191 6.4 0.0 0.00 0.00 0.00 80 984.5
20260508121555 5 180 4.8 0.0 0.00 0.00 0.00 80 984.5
20260508120141 3 157 1.6 0.0 0.00 0.00 0.00 80 984.5
20260508114555 2 146 1.6 0.0 0.00 0.00 0.00 81 984.0
20260508113117 2 149 3.2 0.0 0.00 0.00 0.00 79 984.6
20260508111555 2 135 4.8 0.0 0.00 0.00 0.00 79 984.7
20260508110121 1 131 6.4 0.0 0.00 0.00 0.00 79 984.7
20260508104557 1 117 4.8 0.0 0.00 0.00 0.00 78 983.9
20260508103115 1 106 4.8 0.0 0.00 0.00 0.00 77 984.9
20260508101558 2 104 4.8 0.0 0.00 0.00 0.00 77 984.9
20260508100122 2 104 4.8 0.0 0.00 0.00 0.00 77 984.9
20260508094556 2 98 4.8 0.0 0.00 0.00 0.00 76 984.2
20260508093111 2 104 3.2 0.0 0.00 0.00 0.00 83 984.9
20260508091557 2 153 1.6 0.0 0.00 0.00 0.00 83 984.9
20260508090126 2 166 4.8 0.0 0.00 0.00 0.00 83 984.9
20260508084557 2 160 6.4 0.0 0.00 0.00 0.00 72 984.5
20260508083115 3 141 6.4 0.0 0.00 0.00 0.00 73 984.1
20260508081557 3 157 6.4 0.0 0.00 0.00 0.00 73 984.1
20260508080128 3 153 6.4 0.0 0.00 0.00 0.00 73 984.1